Wind_Speed
9 9 9 9 8 8 7 5 5 5 5 6 6 6 7 8 9 9 11 11 13 14 16 18 20 21 23 25 26 28 30 31 33 35 36 38 39 41 42 43 44 44 45 46 46 47 47 47 47
12 12 12 11 10 10 8 7 6 6 6 6 6 7 8 9 11 12 14 15 17 19 20 22 23 25 26 28 29 31 32 34 36 38 39 41 42 44 45 46 47 48 49 50 50 51 51 51 52
14 13 12 11 11 11 8 7 7 6 6 7 7 9 10 12 14 15 17 19 20 22 23 25 26 27 28 30 31 33 35 36 38 40 42 44 45 47 49 50 51 52 53 54 54 55 55 55 56
14 13 12 11 11 9 8 7 7 7 7 8 9 11 13 15 17 18 20 22 23 24 25 26 27 28 30 31 33 35 37 39 41 43 45 47 49 51 53 54 56 57 58 59 60 61 61 61 60
13 12 12 11 9 8 7 6 6 7 9 10 12 14 17 18 19 21 22 23 24 24 25 26 28 29 31 33 35 37 39 41 44 46 48 51 53 56 58 60 62 64 65 66 67 68 68 68 67
11 9 11 9 7 6 6 7 8 10 12 14 15 17 19 20 21 22 22 23 24 25 26 27 29 31 33 35 38 40 42 45 47 50 53 56 59 62 64 67 69 71 73 74 76 76 76 76 75
9 7 8 7 6 6 8 10 12 13 15 17 18 19 21 20 21 22 22 23 24 26 27 29 31 33 35 38 40 43 46 49 52 55 58 61 64 68 71 74 76 79 81 82 84 85 85 85 84
6 5 5 6 7 9 11 13 15 17 18 20 20 19 20 21 21 21 22 23 25 27 29 31 33 36 38 40 43 46 49 52 56 59 62 66 69 73 76 80 84 87 89 91 93 94 95 95 94
4 5 7 9 11 13 15 17 18 20 20 21 20 19 19 20 21 21 23 25 27 29 31 33 35 38 40 43 46 49 52 56 59 63 66 70 74 77 81 85 89 93 96 99 101 103 104 104 103
6 8 11 13 15 16 18 19 20 20 20 19 19 19 19 20 21 23 25 26 28 30 33 35 37 40 43 46 49 52 56 59 62 66 70 73 77 81 86 90 95 99 102 104 106 106 106 105 105
9 12 15 17 18 19 19 20 20 19 18 18 18 18 19 21 23 25 27 28 30 32 35 37 40 42 46 49 52 55 58 62 65 69 73 77 81 86 90 95 99 102 103 103 101 98 96 95 95
13 15 17 19 19 19 19 19 18 18 17 16 16 18 20 22 24 26 28 30 32 34 37 39 42 45 48 51 54 57 61 64 68 72 76 80 85 89 94 97 99 99 97 92 87 84 81 80 79
16 18 18 19 19 18 18 17 16 16 16 16 17 19 21 24 26 28 30 32 34 36 39 42 44 47 50 53 56 59 63 67 70 74 79 83 88 92 95 96 95 91 84 78 73 70 68 67 67
17 18 18 17 17 16 16 15 15 15 15 17 18 21 23 26 28 30 32 34 36 38 41 44 47 49 53 55 58 61 65 69 72 77 82 86 90 92 93 92 86 79 73 69 67 65 63 62 62
17 17 16 16 15 14 14 14 15 15 16 18 20 22 25 27 29 32 34 36 38 41 43 46 49 51 54 57 60 63 67 70 75 79 84 88 90 91 90 85 78 73 69 67 65 64 62 61 61
16 15 14 14 13 14 14 12 14 16 17 20 22 25 27 29 32 34 36 38 41 43 45 48 51 53 56 58 62 65 69 72 77 81 86 88 89 88 84 78 73 70 67 66 65 64 64 63 63
14 14 12 11 13 14 15 14 14 18 19 22 25 27 29 32 34 36 38 40 43 45 47 49 52 54 57 60 64 67 70 74 79 83 86 87 87 84 78 74 70 67 66 66 65 65 65 64 63
13 13 13 13 13 15 16 17 16 19 22 24 27 29 31 33 35 37 40 42 44 46 49 51 53 56 59 62 65 68 72 76 80 83 85 85 83 79 75 71 68 66 66 66 65 64 64 64 64
13 13 13 14 14 15 16 18 18 20 23 26 28 31 32 34 36 39 41 43 45 48 50 52 54 57 60 63 66 69 73 77 80 83 84 83 80 76 72 68 66 66 66 66 64 64 64 62 63
12 12 13 13 15 16 17 19 20 22 24 27 29 31 33 35 37 39 42 44 46 49 51 53 55 58 60 63 67 70 73 77 80 82 82 80 76 73 70 67 66 66 66 65 64 64 63 61 61
10 12 13 13 13 15 17 18 20 21 24 27 29 31 33 36 38 40 43 45 48 50 52 54 56 58 61 64 67 71 74 77 80 81 80 78 74 71 68 66 66 65 65 64 63 63 61 59 56
9 10 11 13 14 14 16 17 18 21 24 26 28 31 34 36 39 41 43 46 48 51 53 55 57 59 61 65 68 71 74 77 79 80 78 75 72 70 67 66 65 64 64 63 62 61 59 58 55
8 9 10 11 12 14 16 17 17 21 23 26 28 31 34 37 40 42 44 47 49 52 53 55 57 60 62 65 68 71 74 77 79 79 76 73 70 68 66 65 64 64 63 62 61 59 57 56 54
7 8 9 10 11 12 14 17 19 21 24 26 29 32 35 38 41 43 46 48 51 53 55 57 59 61 63 66 69 72 74 77 78 77 75 71 69 67 65 64 63 63 63 61 59 57 55 54 51
7 7 8 9 10 12 15 17 19 22 25 27 30 33 36 39 41 44 47 50 53 55 57 59 60 62 64 67 69 72 74 76 77 76 73 70 67 65 64 63 62 62 62 60 58 56 54 52 48
8 8 9 10 11 13 14 16 18 21 24 27 31 34 37 40 43 46 49 52 54 57 60 61 62 63 65 68 70 72 74 76 76 75 72 69 67 65 63 63 62 61 61 59 57 55 53 50 47
10 10 10 11 12 13 15 17 18 22 25 28 31 35 38 41 44 47 50 53 56 59 62 64 65 65 66 68 70 72 74 75 75 74 71 68 66 64 63 62 61 61 60 58 56 54 52 49 45
12 12 12 13 15 16 17 20 23 25 27 29 32 35 38 42 46 49 52 54 57 60 63 66 67 67 67 69 71 72 74 75 74 73 70 67 65 63 62 61 60 60 59 57 55 53 51 48 44
14 14 14 16 17 19 20 21 24 26 29 31 34 37 40 43 47 51 53 56 59 61 64 67 69 69 69 69 71 72 73 74 74 72 69 67 65 63 61 61 60 59 58 56 54 52 50 47 43
17 16 17 17 19 20 22 23 25 27 29 32 35 38 41 44 48 51 55 57 60 62 65 67 70 71 71 70 71 72 73 74 73 71 69 66 64 63 61 60 59 58 58 56 54 51 49 46 42
Wind_Direction
110 112 111 108 104 92 83 79 74 69 57 44 32 19 6 357 349 342 335 329 323 318 315 313 312 311 310 309 307 306 305 304 303 302 301 299 297 296 294 292 290 288 286 284 282 280 278 276 274
107 107 106 106 103 92 87 79 75 67 56 40 24 7 351 340 332 327 323 319 316 314 313 313 312 312 311 309 309 308 307 306 305 303 301 299 298 296 295 293 291 288 286 284 282 280 278 275 273
105 104 102 101 90 87 85 75 64 55 41 24 4 346 333 325 320 318 316 315 314 314 315 314 313 313 312 311 311 310 308 306 305 303 302 301 299 297 296 294 292 290 287 285 282 280 278 275 273
102 100 98 92 85 83 77 62 47 32 15 358 342 329 322 318 316 316 316 316 316 316 316 315 315 314 314 313 312 310 308 307 305 304 303 302 300 298 297 295 293 291 289 286 284 281 278 276 273
100 99 94 85 77 69 58 38 19 3 347 336 329 322 320 318 318 318 318 318 317 317 317 316 316 315 314 313 311 310 309 308 307 306 305 304 302 301 299 297 295 293 290 288 286 283 280 277 274
96 92 88 82 64 44 22 3 350 342 332 327 324 322 320 319 319 319 319 319 319 319 318 317 317 316 315 314 313 312 311 311 309 308 307 306 305 304 302 300 297 295 293 290 287 284 281 278 276
90 76 67 59 32 5 348 339 333 330 325 323 323 323 320 320 320 320 321 321 320 319 319 318 317 316 315 315 315 314 313 313 312 311 310 309 307 305 303 301 299 296 294 291 289 286 283 279 276
77 55 35 14 351 337 331 328 326 325 323 322 323 324 321 321 321 321 321 321 320 319 319 319 318 317 317 317 317 316 315 315 314 313 312 310 308 306 304 302 300 297 294 292 289 286 283 280 277
34 3 348 339 333 327 325 323 323 324 323 324 325 324 322 322 322 322 322 322 321 321 321 320 319 319 319 319 318 318 317 317 316 315 313 311 308 306 304 302 299 297 294 292 289 287 284 281 278
347 334 329 327 325 323 322 322 323 324 324 325 326 325 323 323 323 323 323 322 322 322 321 321 321 321 321 320 320 319 319 318 316 315 312 310 308 306 304 302 300 298 295 293 291 289 286 283 280
326 323 322 321 321 321 321 322 323 325 326 327 327 326 325 325 324 323 323 323 323 323 323 324 323 323 322 321 320 320 319 317 316 314 313 311 309 307 305 303 301 298 297 295 293 290 288 285 282
317 317 318 318 319 320 322 324 325 327 328 329 328 326 325 324 323 323 324 324 325 325 325 325 324 323 323 322 321 320 319 317 316 315 313 312 310 308 306 305 303 301 300 297 294 291 288 285 281
315 317 318 319 321 322 324 326 328 330 331 330 328 326 325 324 324 324 325 325 326 326 326 326 325 324 323 322 321 320 319 318 317 316 315 313 312 310 309 307 307 305 303 300 297 294 290 286 282
317 318 320 322 323 324 327 329 331 332 331 329 328 326 325 325 325 325 326 326 327 327 326 326 325 324 323 323 322 321 320 319 318 317 316 315 314 313 311 311 310 308 306 303 301 298 294 290 286
320 321 324 325 326 327 331 333 333 333 330 329 327 326 326 327 327 327 327 327 327 327 326 326 325 324 324 323 322 322 321 321 320 319 319 318 317 316 315 315 313 311 309 307 305 302 298 293 289
322 325 327 327 329 330 334 341 333 332 331 329 328 328 329 329 329 328 328 327 327 326 326 326 326 325 325 324 324 324 323 323 322 321 321 321 320 319 319 318 316 314 312 310 307 304 301 296 291
324 327 332 336 331 334 335 343 339 332 333 331 331 331 331 330 330 329 328 328 327 326 326 326 326 326 325 325 325 325 325 324 324 324 323 323 322 322 321 320 318 317 315 313 310 307 304 300 295
332 334 336 341 336 336 336 340 345 334 335 334 333 333 332 332 331 330 329 328 328 327 327 327 327 326 326 326 327 327 327 326 326 326 325 325 325 324 324 323 321 320 318 316 313 310 307 304 299
331 333 334 338 338 338 338 339 343 338 336 335 335 335 334 333 332 331 330 329 329 328 328 328 328 327 327 328 328 329 328 328 328 328 328 328 327 327 326 325 324 322 321 319 317 314 312 308 303
329 330 333 338 335 338 340 341 342 341 338 338 338 337 336 335 334 333 332 331 330 330 330 330 329 329 329 330 330 331 330 330 330 330 330 330 330 330 329 328 326 325 324 322 320 318 316 313 311
327 329 332 337 340 341 342 345 341 342 341 341 341 340 340 338 337 336 335 334 333 332 332 332 331 331 331 332 332 332 332 333 333 333 332 332 332 332 331 330 329 328 328 326 325 323 321 320 318
324 327 332 336 341 343 346 349 347 345 346 346 345 345 344 343 342 341 340 338 337 335 334 334 334 333 333 334 334 335 335 335 335 335 335 334 334 334 334 333 332 332 331 330 329 328 326 325 324
321 325 331 336 341 345 347 348 354 351 351 350 349 348 347 347 347 346 345 343 342 340 338 337 336 336 336 336 337 337 337 337 337 338 337 337 336 336 336 336 335 335 334 333 333 332 330 329 329
313 322 329 333 340 343 347 350 354 355 354 353 351 351 350 350 349 348 348 346 345 344 342 340 339 339 338 338 339 339 339 339 340 340 339 339 338 338 338 338 338 338 337 337 336 335 334 333 332
303 314 320 327 337 346 351 352 353 354 354 354 353 353 352 351 350 349 349 349 348 347 346 344 342 341 341 340 341 340 341 341 342 342 341 341 341 341 341 341 341 340 340 340 339 339 338 337 336
292 303 315 327 338 343 346 348 350 352 353 353 353 353 352 352 351 350 350 350 350 349 348 347 345 344 343 342 342 342 342 343 343 343 343 343 343 343 343 343 343 343 343 343 343 343 342 342 340
287 295 306 317 325 330 336 342 345 349 351 352 352 352 352 352 351 351 350 350 350 350 350 349 348 346 345 344 344 344 344 345 345 345 345 345 345 345 345 345 345 346 346 346 346 346 346 346 345
282 291 300 309 317 326 334 338 342 345 347 348 350 350 351 351 351 351 351 350 350 350 350 350 349 348 346 345 345 345 346 346 347 346 346 346 346 346 347 347 347 348 348 348 348 349 349 349 348
281 287 295 304 313 321 328 334 337 340 342 344 346 347 349 350 351 351 350 350 350 350 350 350 350 349 348 347 346 347 347 347 348 348 348 348 348 348 348 349 349 349 350 350 351 351 351 351 351
279 285 293 301 308 315 322 328 332 335 338 340 342 344 346 347 349 350 350 349 349 349 350 350 351 350 349 348 347 348 348 348 349 349 349 349 349 350 350 350 351 351 352 352 352 353 353 353 352
Height
5874 5875 5876 5877 5879 5879 5879 5880 5880 5880 5880 5880 5880 5880 5880 5879 5880 5882 5879 5876 5876 5875 5874 5872 5870 5869 5867 5865 5863 5862 5859 5857 5855 5853 5851 5848 5846 5844 5842 5840 5838 5837 5835 5834 5832 5831 5831 5830 5830
5875 5876 5878 5879 5879 5879 5880 5880 5881 5881 5881 5881 5880 5880 5880 5879 5878 5878 5876 5875 5874 5873 5871 5869 5867 5865 5863 5861 5859 5857 5855 5852 5850 5847 5844 5842 5839 5837 5834 5832 5829 5827 5826 5824 5823 5821 5821 5820 5820
5877 5878 5880 5880 5879 5880 5881 5882 5882 5881 5881 5881 5881 5881 5880 5879 5878 5876 5874 5873 5871 5869 5867 5865 5863 5861 5859 5857 5854 5852 5849 5846 5843 5840 5837 5834 5831 5828 5825 5822 5819 5817 5815 5813 5811 5810 5809 5808 5808
5879 5880 5881 5882 5881 5882 5883 5883 5883 5882 5882 5882 5881 5880 5879 5877 5876 5874 5872 5870 5868 5866 5864 5861 5859 5857 5854 5852 5849 5846 5843 5840 5837 5833 5830 5826 5822 5819 5815 5812 5808 5805 5802 5800 5798 5796 5795 5794 5794
5881 5882 5883 5883 5883 5884 5884 5884 5883 5883 5882 5881 5881 5879 5877 5875 5873 5870 5868 5866 5864 5862 5860 5857 5855 5852 5849 5847 5844 5840 5837 5833 5829 5825 5821 5816 5812 5808 5803 5799 5794 5790 5787 5784 5781 5779 5778 5777 5777
5884 5884 5884 5884 5884 5885 5884 5884 5883 5882 5881 5880 5879 5877 5874 5872 5869 5867 5865 5863 5861 5858 5856 5853 5850 5847 5844 5841 5837 5833 5829 5825 5820 5815 5810 5805 5800 5794 5789 5783 5778 5773 5769 5765 5762 5759 5757 5757 5756
5886 5886 5885 5885 5885 5885 5885 5883 5882 5881 5879 5877 5876 5874 5870 5869 5866 5864 5862 5860 5857 5854 5852 5849 5846 5842 5839 5834 5830 5826 5821 5816 5810 5805 5799 5793 5786 5780 5773 5767 5760 5754 5748 5743 5739 5735 5733 5732 5732
5886 5887 5886 5885 5885 5885 5884 5882 5880 5878 5877 5874 5872 5871 5868 5866 5863 5861 5859 5856 5853 5850 5847 5844 5840 5836 5832 5828 5823 5818 5812 5806 5800 5794 5787 5780 5773 5765 5757 5749 5741 5733 5726 5719 5713 5708 5704 5703 5702
5887 5889 5886 5885 5885 5884 5882 5880 5878 5875 5873 5871 5869 5867 5865 5862 5860 5858 5855 5852 5849 5846 5843 5839 5835 5830 5825 5820 5815 5809 5803 5796 5789 5782 5775 5768 5759 5751 5742 5732 5722 5712 5702 5693 5685 5678 5673 5670 5670
5888 5887 5886 5884 5883 5881 5879 5877 5875 5873 5870 5868 5866 5864 5861 5859 5857 5854 5851 5848 5845 5841 5837 5833 5828 5823 5818 5812 5806 5800 5793 5786 5779 5771 5763 5755 5745 5735 5724 5712 5700 5687 5676 5665 5655 5646 5640 5636 5634
5887 5886 5884 5882 5881 5879 5877 5875 5872 5870 5868 5866 5863 5861 5858 5856 5853 5850 5847 5844 5840 5836 5831 5827 5822 5816 5810 5804 5798 5791 5784 5776 5768 5760 5750 5740 5729 5717 5703 5690 5676 5662 5649 5637 5626 5617 5610 5605 5602
5886 5884 5882 5881 5878 5876 5874 5872 5870 5867 5866 5863 5861 5858 5856 5853 5850 5846 5843 5839 5835 5830 5825 5820 5814 5809 5802 5796 5789 5782 5774 5766 5757 5747 5736 5724 5711 5697 5682 5666 5650 5635 5621 5610 5600 5591 5584 5579 5574
5884 5882 5880 5878 5876 5874 5872 5869 5867 5865 5863 5860 5858 5855 5852 5849 5846 5842 5838 5834 5829 5824 5819 5813 5807 5801 5794 5787 5780 5772 5763 5754 5744 5733 5720 5706 5691 5675 5658 5641 5624 5609 5596 5585 5576 5568 5562 5557 5552
5882 5880 5878 5875 5873 5871 5869 5867 5865 5863 5860 5858 5855 5852 5849 5845 5842 5837 5833 5828 5823 5818 5813 5806 5800 5793 5786 5778 5770 5762 5752 5741 5730 5717 5702 5687 5670 5653 5635 5618 5601 5587 5575 5565 5556 5548 5542 5536 5531
5879 5877 5876 5873 5871 5869 5867 5865 5863 5860 5858 5855 5852 5849 5845 5841 5837 5832 5828 5823 5817 5812 5806 5799 5792 5785 5777 5769 5760 5750 5740 5728 5715 5700 5684 5667 5649 5631 5613 5596 5581 5568 5557 5546 5537 5529 5521 5515 5510
5877 5875 5874 5871 5869 5866 5866 5864 5861 5857 5855 5852 5848 5845 5841 5836 5832 5827 5822 5817 5811 5805 5799 5792 5785 5777 5768 5759 5749 5739 5727 5714 5699 5684 5666 5648 5629 5611 5593 5577 5564 5551 5539 5529 5519 5510 5502 5494 5488
5875 5873 5871 5870 5866 5864 5862 5861 5858 5854 5852 5848 5845 5841 5837 5832 5828 5823 5817 5812 5805 5799 5792 5785 5777 5768 5759 5749 5738 5726 5714 5699 5684 5667 5649 5630 5611 5593 5577 5562 5548 5535 5524 5512 5501 5491 5481 5473 5465
5872 5870 5868 5866 5864 5862 5859 5857 5855 5851 5848 5845 5841 5837 5833 5828 5823 5818 5812 5806 5800 5792 5785 5777 5769 5759 5749 5738 5727 5714 5700 5685 5669 5651 5633 5614 5595 5578 5562 5547 5534 5521 5509 5496 5484 5473 5462 5451 5442
5870 5868 5866 5864 5862 5860 5857 5855 5852 5849 5845 5841 5838 5833 5829 5824 5819 5813 5807 5800 5794 5786 5778 5769 5760 5750 5739 5728 5716 5703 5688 5672 5655 5637 5618 5599 5581 5564 5549 5534 5520 5507 5494 5481 5467 5455 5444 5432 5420
5869 5867 5865 5863 5860 5857 5855 5852 5849 5846 5842 5839 5834 5830 5825 5820 5815 5809 5802 5795 5787 5779 5770 5761 5751 5741 5730 5718 5705 5691 5676 5660 5642 5624 5604 5586 5568 5552 5536 5521 5508 5494 5480 5466 5452 5439 5426 5415 5401
5867 5865 5863 5861 5859 5856 5853 5851 5847 5844 5840 5836 5831 5827 5822 5816 5810 5804 5796 5788 5780 5772 5763 5753 5743 5731 5720 5707 5694 5679 5664 5647 5630 5611 5592 5573 5556 5540 5524 5510 5496 5481 5467 5453 5438 5424 5409 5397 5386
5866 5864 5861 5859 5856 5854 5852 5850 5846 5841 5837 5833 5828 5823 5818 5812 5805 5798 5791 5782 5774 5765 5755 5745 5734 5722 5710 5697 5683 5668 5653 5636 5618 5599 5581 5562 5545 5529 5514 5499 5485 5470 5455 5440 5426 5411 5396 5382 5370
5864 5862 5860 5857 5855 5852 5849 5847 5845 5839 5835 5830 5825 5820 5814 5807 5800 5793 5785 5776 5767 5757 5747 5736 5725 5713 5700 5687 5672 5657 5641 5625 5607 5588 5570 5552 5535 5519 5504 5489 5475 5460 5445 5430 5415 5400 5386 5371 5357
5862 5861 5858 5856 5853 5851 5848 5844 5841 5836 5832 5827 5822 5816 5810 5803 5795 5787 5779 5770 5761 5751 5740 5728 5716 5704 5691 5677 5662 5647 5631 5614 5596 5578 5561 5544 5527 5511 5496 5481 5466 5451 5436 5420 5405 5391 5377 5363 5349
5861 5860 5858 5855 5852 5849 5845 5841 5838 5833 5828 5823 5818 5812 5805 5799 5791 5783 5774 5764 5754 5744 5733 5721 5708 5695 5682 5668 5653 5638 5622 5605 5587 5569 5552 5535 5520 5504 5488 5473 5458 5443 5428 5412 5397 5383 5369 5355 5342
5858 5857 5855 5852 5849 5846 5842 5839 5836 5830 5825 5820 5814 5808 5801 5794 5786 5778 5768 5759 5748 5737 5726 5713 5700 5687 5674 5659 5645 5629 5613 5596 5578 5561 5544 5527 5512 5496 5481 5466 5451 5436 5421 5406 5391 5376 5362 5349 5336
5855 5853 5852 5849 5846 5843 5840 5837 5832 5827 5822 5816 5810 5804 5797 5790 5781 5772 5763 5753 5742 5731 5719 5706 5693 5679 5666 5651 5637 5621 5605 5588 5571 5553 5536 5520 5505 5490 5475 5460 5445 5430 5415 5400 5386 5372 5358 5345 5332
5853 5850 5848 5845 5842 5839 5836 5832 5828 5822 5818 5813 5806 5800 5793 5785 5776 5767 5757 5747 5736 5725 5713 5700 5686 5673 5659 5644 5629 5614 5598 5581 5564 5547 5530 5515 5499 5484 5469 5455 5440 5426 5411 5396 5382 5369 5355 5342 5330
5849 5847 5844 5841 5838 5835 5831 5830 5823 5818 5812 5807 5801 5795 5788 5780 5771 5762 5752 5742 5731 5719 5707 5694 5680 5666 5652 5637 5623 5607 5591 5575 5558 5541 5525 5509 5494 5479 5465 5450 5436 5422 5408 5393 5380 5366 5353 5341 5330
5845 5842 5840 5838 5834 5830 5826 5827 5819 5814 5808 5802 5796 5789 5782 5774 5766 5756 5747 5736 5725 5713 5701 5688 5674 5660 5646 5631 5616 5601 5585 5569 5553 5536 5520 5505 5490 5475 5461 5447 5433 5419 5405 5391 5377 5365 5352 5341 5330